METAR LOCAUX

2019/08/21 16:30 LFST 211630Z AUTO 04011KT 010V070 CAVOK 24/10 Q1025 NOSIG
2019/08/21 16:50 EDSB 211650Z 05009KT CAVOK 23/11 Q1025
2019/08/21 16:30 LFGA 211630Z AUTO 02008KT CAVOK 22/13 Q1025
www.noaa.gov

Ne pas utiliser pour préparer ou effectuer un vol: Utilisez la documentation officielle disponible sur aviation.meteo.fr (Aéroweb)


"Le soleil du matin ne dure pas forcément toute la journée."

Animation satellite IR

Meteociel.fr

"Derrière chaque nuage se cache le ciel bleu."

Radar pluie

Infoclimat.fr

"Si tu veux l’arc-en-ciel, tu dois supporter la pluie."
Dolly Parton

Nébulosité (octas)

Meteociel.fr

"Le soleil est souvent obscurci par les nuages et la raison par les passions."
Démophile

Impacts de foudre

www.meteo60.fr

"Celui que frappe la foudre n'entend pas le tonnerre."

Vigilance météo

vigilance-meteo.fr

"Tout nuage n'enfante pas une tempête."
William Shakespeare

TAF locaux

2019/08/21 12:21 TAF LFST 211100Z 2112/2212 05008KT 9999 FEW050
2019/08/21 12:27 TAF EDSB 211100Z 2112/2212 02010KT CAVOK BECMG 2120/2122 02005KT PROB30 TEMPO 2202/2208 3000 BR BECMG 2208/2211 02010KT
www.noaa.gov

Ne pas utiliser pour préparer ou effectuer un vol: Utilisez la documentation officielle disponible sur aviation.meteo.fr (Aéroweb)


"Les jours où le ciel est gris, le soleil n'a pas disparu à tout jamais."
Arnaud Desjardins

Prévisions 7 jours


Meteoblue.com

"Quand les crapauds chantent, le beau temps s'avance !"